Date,TemperatureHighF,TemperatureAvgF,TemperatureLowF,DewpointHighF,DewpointAvgF,DewpointLowF,HumidityHigh,HumidityAvg,HumidityLow,PressureMaxIn,PressureMinIn,WindSpeedMaxMPH,WindSpeedAvgMPH,GustSpeedMaxMPH,PrecipitationSumIn
2013-2-1,71,54,42,36,34,30,75,49,23,0.00,40.00,3,1,8,0.00
2013-2-2,69,57,47,37,31,25,62,40,19,0.00,40.00,3,1,10,0.00
2013-2-3,72,61,53,36,33,29,51,36,22,0.00,40.00,5,1,10,0.00
2013-2-4,74,59,48,36,28,21,59,34,14,0.00,40.00,3,1,7,0.00
2013-2-5,71,57,44,33,28,23,62,36,17,0.00,40.00,3,1,6,0.00
2013-2-6,71,61,51,31,22,9,42,24,12,0.00,40.00,6,2,14,0.00
2013-2-7,70,57,43,26,23,17,47,28,18,0.00,40.00,10,2,17,0.00
2013-2-8,57,50,44,31,25,18,46,37,25,0.00,40.00,13,6,26,0.00
2013-2-9,56,48,41,30,23,18,63,39,24,0.00,40.00,8,3,17,0.00
2013-2-10,55,47,43,26,17,13,46,30,20,0.00,40.00,9,4,18,0.00
2013-2-11,53,46,40,26,12,3,48,27,14,0.00,40.00,7,4,16,0.00
2013-2-12,59,47,37,18,12,9,34,25,15,0.00,40.00,4,1,9,0.00
2013-2-13,67,51,39,28,22,17,49,33,18,0.00,40.00,2,1,8,0.00
2013-2-14,69,57,45,27,24,18,50,30,15,0.00,40.00,6,2,12,0.00
2013-2-15,71,57,45,25,22,16,44,26,13,0.00,40.00,5,2,13,0.00
2013-2-16,70,55,42,26,22,16,52,30,13,0.00,40.00,2,1,7,0.00
2013-2-17,74,58,42,26,16,5,48,23,8,0.00,40.00,7,2,15,0.00
2013-2-18,66,55,44,25,18,9,37,24,14,0.00,40.00,4,1,9,0.00
2013-2-19,66,53,42,28,24,20,50,34,18,0.00,40.00,11,4,21,0.00
2013-2-20,58,49,44,37,32,25,72,52,30,0.00,40.00,10,3,18,0.00
2013-2-21,58,47,39,35,23,11,77,43,16,0.00,40.00,5,1,11,0.00
2013-2-22,61,50,38,20,14,9,38,24,15,0.00,40.00,3,1,10,0.00
2013-2-23,63,50,41,23,17,0,46,29,10,0.00,40.00,11,4,26,0.00
2013-2-24,58,49,42,12,7,2,26,18,10,0.00,40.00,12,7,24,0.00
2013-2-25,61,48,36,16,12,9,43,24,13,0.00,40.00,4,1,8,0.00
2013-2-26,62,50,38,17,11,4,41,22,11,0.00,40.00,7,3,19,0.00
2013-2-27,62,48,38,15,11,4,38,24,10,0.00,40.00,5,2,10,0.00